Regional Weather Roundup
Issued by NWS

Home | Current Version | Previous Version | Text Only | Print | Product List | Glossary On
Versions: 1 2 3 4 5 6 7 8 9 10 11 12 13 14 15 16 17 18 19 20 21 22 23 24 25 26 27 28 29 30 31 32 33 34 35 36 37 38 39 40 41 42 43 44 45 46 47 48 49 50
815
ASUS43 KOAX 191610
RWRNE

WEATHER ROUNDUP FOR NEBRASKA
NATIONAL WEATHER SERVICE OMAHA NE
1000 AM CST MON FEB 19 2018

NOTES: SATELLITE DATA IS BEING USED TO AUGMENT CLOUD COVER ABOVE
       12000 FEET.
       "FAIR" INDICATES FEW OR NO CLOUDS BELOW 12,000 FEET WITH NO
       SIGNIFICANT WEATHER AND/OR OBSTRUCTIONS TO VISIBILITY.


NEZ001>004-019>022-054>056-191700-
NEBRASKA PANHANDLE

CITY           SKY/WX    TMP DP  RH WIND       PRES   REMARKS
SCOTTSBLUFF    LGT SNOW   6   0  76 NE8       29.84F WCI  -7
ALLIANCE       LGT SNOW   4   1  88 N14       29.84S FOG     WCI -14
CHADRON        LGT SNOW   3  -1  83 NE13      29.95F VSB 1   WCI -14
GORDON         LGT SNOW   4  -2  75 N16       29.90F WCI -15
KIMBALL        LGT SNOW   6   2  82 NE7       29.75S WCI  -5
SIDNEY         LGT SNOW   8   4  83 N12       29.78F FOG     WCI  -7
$$

NEZ057>060-069>072-079>082-191700-
SOUTHWEST NEBRASKA

CITY           SKY/WX    TMP DP  RH WIND       PRES   REMARKS
NORTH PLATTE   CLOUDY    12   6  77 N14       29.87S WCI  -3
IMPERIAL       FLURRIES  12   8  84 N17       29.83F WCI  -5
LEXINGTON      LGT SNOW  16  10  80 N17       29.86R WCI   0
MCCOOK         CLOUDY    16  11  80 N15       29.86S HAZE    WCI   1
OGALLALA       CLOUDY    13   8  80 N16       29.86S WCI  -4
$$

NEZ005>010-023>029-035>040-094-191700-
NORTH CENTRAL NEBRASKA

CITY           SKY/WX    TMP DP  RH WIND       PRES   REMARKS
VALENTINE      LGT SNOW   8   2  76 N15G22    29.94F WCI  -9
AINSWORTH      LGT SNOW   8   5  86 N22       29.92R WCI -12
BROKEN BOW     FLURRIES  12   7  80 N23G29    29.84S WCI  -7
O`NEILL        FLURRIES  11   8  86 N20G26    29.89F WCI  -7
ORD            LGT SNOW  14   9  80 N22G32    29.86S WCI  -4
THEDFORD       CLOUDY    10   5  82 N13G24    29.89R WCI  -6
$$

NEZ041-046>049-061>064-073>077-083>087-191700-
SOUTH CENTRAL NEBRASKA

CITY           SKY/WX    TMP DP  RH WIND       PRES   REMARKS
GRAND ISLAND   LGT SNOW  16  13  88 N20G25    29.87R FOG     WCI  -1
AURORA         FLURRIES  17  13  87 N16       29.85R WCI   1
HASTINGS       LGT SNOW  16  12  84 N21       29.84R FOG     WCI  -1
HEBRON         CLOUDY    21  18  89 N14G20    29.83S WCI   8
HOLDREGE       FLURRIES  16  14  91 N13G22    29.85S WCI   2
KEARNEY        FLURRIES  15  11  83 N13G22    29.86R WCI   1
YORK           FLURRIES  19  19 100 N13G20    29.84R WCI   7
$$

NEZ011>018-030>034-042>045-191700-
NORTHEAST NEBRASKA

CITY           SKY/WX    TMP DP  RH WIND       PRES   REMARKS
NORFOLK        FRZ RAIN  17  16  95 N16G25    29.83S FOG     WCI   2
ALBION         LGT SNOW  15  11  84 N15       29.86R WCI   0
BLAIR          CLOUDY    22  21  95 N14       29.78R FOG     WCI  10
COLUMBUS       MIX PCPN  19  16  88 N18G25    29.85R WCI   4
FREMONT        CLOUDY    21  19  93 N14       29.83R WCI   8
TEKAMAH        CLOUDY    21  19  92 N24G33    29.83R WCI   4
WAYNE          CLOUDY    18  17  96 N12       29.84S FOG     WCI   5
$$

NEZ050>053-065>068-078-088>093-191700-
SOUTHEAST NEBRASKA

CITY           SKY/WX    TMP DP  RH WIND       PRES   REMARKS
LINCOLN        FLURRIES  23  20  88 N16       29.83R WCI  10
OMAHA EPPLEY   CLOUDY    25  23  92 N20       29.78R FOG     WCI  11
BEATRICE       CLOUDY    25  24  94 N15       29.81R WCI  13
FALLS CITY     CLOUDY    28  27  96 NW13G28   29.75R FOG     WCI  17
NEBRASKA CITY  CLOUDY    27  27 100 N14G20    29.77R FOG     WCI  15
PLATTSMOUTH    CLOUDY    26  25  99 NW12G17   29.77R FOG     WCI  15
$$

NEZ044-045-051>053-067-191700-
OMAHA AREA

CITY           SKY/WX    TMP DP  RH WIND       PRES   REMARKS
OMAHA EPPLEY   CLOUDY    25  23  92 N20       29.78R FOG     WCI  11
BLAIR          CLOUDY    22  21  95 N14       29.78R FOG     WCI  10
FREMONT        CLOUDY    21  19  93 N14       29.83R WCI   8
MILLARD        CLOUDY    24  22  91 N8G21     29.80R FOG     WCI  16
OFFUTT AFB     CLOUDY    26  24  93 NW9       29.78R WCI  16
PLATTSMOUTH    CLOUDY    26  25  99 NW12G17   29.77R FOG     WCI  15
WAHOO          CLOUDY    22  20  91 MISG      29.81R
$$




USA.gov is the U.S. government's official web portal to all federal, state and local government web resources and services.